Theta_e
335 334 334 335 335 335 334 334 333 332 331 332 331 332 332 333 332 332 332 331 328 328 329 330 330 330 330 329 329 329 330 332 333 332 329 327 325 323 322 322 322 321 321 325 329 328 327 327 327 327 326 325 326 325 325 325 325 326 327 326 324 320 315 310 306 303 303 301 301 303 305 306 306 307 307 308 307 308 310 312 314 315 316 318 318
335 334 334 335 335 334 334 333 332 333 333 333 333 332 332 332 332 332 332 331 331 330 330 330 330 330 330 329 329 329 330 332 333 332 330 328 327 325 323 323 322 322 321 324 328 329 327 326 324 325 326 326 326 325 324 324 324 326 328 327 326 324 318 314 310 306 304 302 301 300 301 302 302 302 304 306 306 306 307 307 308 309 311 316 317
335 335 334 335 335 334 332 331 332 334 334 334 333 333 332 331 332 332 332 331 331 331 331 330 330 330 330 329 329 328 329 331 332 333 332 330 329 327 325 325 323 323 322 323 326 328 328 327 324 323 324 325 326 325 324 323 322 325 327 326 326 325 320 316 314 310 306 304 302 300 299 300 301 300 302 304 305 306 306 306 309 309 309 313 316
335 335 334 334 335 333 332 333 334 334 334 333 333 333 332 332 332 332 332 331 330 331 330 329 329 329 330 329 329 328 329 331 333 332 333 332 331 329 327 326 325 324 324 323 324 326 327 327 327 323 322 322 323 322 325 323 319 324 326 324 326 326 323 319 316 313 310 306 303 301 300 300 300 301 301 301 303 305 307 307 311 311 308 311 315
336 335 334 334 333 333 333 334 334 333 333 333 332 331 331 332 331 330 330 330 330 330 329 328 328 329 329 329 328 328 329 331 333 332 332 333 332 331 329 327 326 325 326 324 324 325 326 327 327 326 324 322 318 317 321 321 318 322 325 324 324 326 325 322 319 317 314 310 306 302 301 300 300 300 301 301 302 304 307 309 311 312 310 309 313
336 335 334 333 333 333 333 333 333 333 332 332 331 331 331 331 330 329 329 329 330 329 328 327 328 329 329 328 329 328 328 330 332 332 332 332 332 331 330 328 327 326 326 326 325 325 325 326 326 327 328 326 323 318 318 318 317 318 322 324 324 325 325 324 323 320 316 314 311 306 303 300 299 299 300 301 302 303 306 309 311 312 311 310 311
335 335 334 333 333 333 333 332 332 332 332 333 332 332 331 330 331 331 330 329 329 328 326 326 327 327 327 327 328 328 328 328 329 330 331 332 332 331 330 329 328 327 327 327 327 326 326 326 326 327 328 328 327 326 323 321 319 315 317 323 324 323 324 324 325 323 320 317 315 312 307 303 301 300 300 300 302 303 304 307 309 310 310 308 308
335 334 333 332 333 333 333 333 332 332 332 333 333 332 331 331 332 332 331 328 327 327 326 327 327 328 327 327 327 328 329 329 328 328 329 330 332 331 330 329 328 327 327 327 327 328 327 326 326 327 327 327 327 328 328 326 325 320 318 323 325 323 323 324 324 324 322 320 318 316 312 307 304 300 299 299 300 302 303 304 306 306 306 306 307
334 333 332 332 332 332 332 333 332 332 333 333 333 332 331 331 331 333 331 327 326 327 327 327 328 328 329 328 328 328 329 329 329 329 328 329 331 331 331 330 329 328 328 328 328 328 328 327 327 326 326 327 327 327 329 328 328 325 322 324 325 323 322 323 324 324 324 323 321 320 317 312 308 304 301 299 298 299 300 302 304 304 304 304 306
333 332 332 332 333 332 332 331 331 331 331 332 332 332 332 331 331 332 331 328 326 326 327 328 328 328 329 329 329 329 329 329 329 329 329 329 329 330 330 330 330 329 329 328 328 329 328 328 327 327 327 327 326 327 328 329 328 327 326 326 326 325 323 322 324 324 325 325 324 323 321 317 313 309 304 301 299 298 298 299 301 302 303 303 303
329 330 331 332 332 331 331 331 331 331 331 331 331 332 333 331 331 332 332 329 327 326 327 328 328 328 328 328 328 329 329 329 330 329 329 329 329 329 329 329 329 330 330 329 328 328 329 328 328 328 328 327 327 327 327 328 329 329 328 327 328 327 325 323 323 323 324 325 325 324 323 322 318 313 310 306 302 300 298 297 298 300 302 303 304
327 327 329 330 330 330 330 330 331 331 331 332 332 332 332 332 332 331 331 330 330 328 328 328 328 328 327 327 327 327 327 328 329 329 330 330 329 329 329 330 329 330 330 330 329 328 328 328 328 328 328 328 327 328 328 328 328 330 330 329 329 329 327 325 324 322 322 324 325 325 324 324 321 318 316 313 309 306 303 299 297 298 299 301 303
327 327 328 328 327 328 329 329 330 331 331 332 332 332 332 331 331 331 331 330 330 330 329 328 328 328 327 327 327 325 325 326 328 328 330 330 329 329 329 329 330 330 331 331 331 330 329 329 329 328 328 328 327 327 328 328 328 328 329 330 330 331 329 327 326 323 320 319 322 325 326 324 323 323 321 319 316 313 309 306 301 298 297 297 299
324 326 328 327 325 326 328 328 329 330 331 331 332 332 331 331 330 331 331 330 330 330 330 329 328 328 327 328 329 328 326 325 326 327 328 329 328 328 329 329 329 329 330 330 331 330 330 330 330 330 330 329 328 328 328 328 328 328 328 329 330 331 331 329 328 326 323 319 319 322 324 322 322 323 323 323 322 319 316 314 309 305 301 297 297
323 325 327 327 325 326 327 327 328 329 329 330 331 331 331 331 331 331 331 330 330 330 330 330 329 329 328 330 332 332 331 329 328 327 326 327 326 326 328 330 330 330 330 330 330 330 329 330 330 330 330 330 330 330 329 329 328 328 328 327 328 330 331 330 329 328 326 324 322 321 321 320 320 320 320 322 323 324 322 320 317 314 309 302 297
322 323 325 326 325 326 326 326 327 328 329 329 329 330 330 330 330 331 331 330 329 329 330 330 329 329 329 330 329 331 335 333 330 329 328 329 328 327 328 328 328 329 330 329 329 329 328 329 329 329 329 329 330 330 330 330 330 330 329 328 328 328 329 330 330 329 329 328 326 325 324 322 321 321 321 320 320 322 324 323 322 320 317 311 303
320 321 323 324 324 325 324 325 327 327 327 327 327 328 328 329 329 330 330 330 329 328 329 329 329 329 330 330 329 332 336 332 331 331 329 330 330 328 328 327 327 328 327 327 328 329 328 328 328 329 329 328 329 329 329 329 330 330 330 330 329 327 328 329 329 330 331 330 329 327 327 326 325 325 324 322 320 320 321 323 322 321 321 319 313
320 320 320 322 323 323 323 324 326 326 325 325 325 326 327 328 329 330 329 330 329 328 328 329 329 329 329 329 329 331 332 330 332 332 328 329 329 327 326 325 326 326 325 326 328 330 329 328 328 327 328 328 328 328 328 329 329 329 329 330 331 329 327 327 328 329 330 331 331 330 329 328 328 327 327 326 324 321 320 320 320 320 321 322 321
320 319 319 321 322 322 322 324 326 325 323 324 324 324 326 327 328 328 329 329 328 328 327 327 328 327 328 329 328 329 329 328 331 331 329 329 327 326 326 325 325 324 324 325 326 329 330 328 328 328 328 328 328 328 328 328 329 329 329 330 331 330 328 327 327 328 329 330 331 332 331 331 330 329 329 328 328 326 324 322 322 321 321 322 322
319 319 317 318 320 320 321 323 324 323 323 324 323 324 324 325 326 326 326 327 328 327 326 327 327 325 327 328 328 328 328 328 328 328 332 332 329 328 326 324 325 324 325 326 325 327 328 327 326 327 328 329 328 328 328 328 328 328 328 328 329 330 329 328 328 328 327 328 329 331 332 332 332 331 330 330 329 329 328 326 325 324 322 322 322
318 318 317 316 317 317 317 318 319 321 322 322 322 322 322 322 324 324 324 325 327 326 325 325 324 324 325 326 327 328 327 326 326 326 330 332 331 329 323 320 323 320 322 325 326 326 327 327 325 324 326 328 329 329 329 329 328 328 329 328 329 329 330 330 329 329 328 327 328 328 330 331 331 331 331 332 330 329 329 328 327 326 325 323 322
316 317 317 315 315 315 313 313 313 314 317 320 320 320 320 320 321 322 324 324 324 323 321 320 320 320 322 323 325 327 324 320 320 322 325 325 325 323 317 317 320 317 316 319 321 323 325 326 326 325 325 325 328 329 329 328 328 328 329 329 329 329 329 329 329 329 330 329 328 328 327 328 329 330 331 331 331 331 330 329 328 327 327 326 325
314 314 315 315 315 314 313 314 313 312 313 314 316 317 318 318 319 320 321 321 319 317 317 317 317 317 318 319 321 322 318 316 315 317 318 318 321 320 314 314 316 315 314 315 315 317 320 322 325 326 326 326 326 326 326 324 324 326 328 329 329 329 329 328 328 328 328 328 329 330 329 328 327 328 329 330 331 331 331 330 329 328 327 327 326
312 312 313 314 315 314 314 315 316 316 315 313 313 314 316 317 318 318 318 317 316 316 316 315 316 315 315 315 316 316 314 314 314 314 314 315 317 316 313 314 317 315 314 314 314 315 315 317 319 321 323 324 325 325 324 324 325 326 328 329 329 329 329 329 329 329 329 329 329 330 330 329 328 328 328 329 330 330 330 330 330 329 328 328 327
311 311 311 312 313 313 314 316 316 315 315 314 313 314 315 316 316 317 318 317 315 315 315 315 315 314 313 312 313 313 313 313 313 313 313 313 312 313 312 313 315 314 314 314 313 314 313 312 313 314 316 321 325 326 326 326 328 328 328 329 328 329 329 329 329 329 329 329 329 329 329 329 329 329 329 329 330 330 330 330 331 330 330 329 328
310 311 310 310 310 310 312 314 314 314 315 315 313 311 312 312 312 312 315 317 316 314 314 314 314 313 312 311 312 313 313 313 312 312 311 311 311 311 311 312 312 311 312 313 312 312 312 311 311 312 313 317 322 325 322 319 319 320 321 321 321 321 323 325 326 327 327 327 326 326 327 327 327 327 328 328 328 329 329 330 330 330 331 330 328
309 311 311 309 307 307 308 310 312 314 315 315 313 310 309 309 309 308 310 312 314 314 313 313 313 312 311 311 312 312 311 310 311 311 311 311 311 311 311 313 316 314 311 312 311 310 310 310 310 311 310 312 315 318 315 312 312 313 313 313 313 314 315 316 319 322 324 326 325 325 325 325 325 325 325 325 325 326 327 328 328 329 330 331 330
310 310 311 309 307 306 305 307 311 314 315 314 313 310 307 307 308 309 308 308 310 313 314 313 313 311 310 309 310 311 310 307 308 311 312 312 312 312 311 311 316 320 317 316 314 310 310 310 310 309 309 308 309 309 310 310 311 311 311 311 311 312 312 313 313 314 317 319 320 321 321 322 321 320 320 319 319 320 321 324 325 327 328 329 329
311 311 312 311 309 307 305 306 311 314 314 314 313 310 307 306 307 308 308 307 307 311 313 313 312 311 310 309 309 310 309 308 309 310 312 311 311 311 312 310 313 317 319 321 318 312 310 310 309 308 307 306 306 306 307 309 309 310 310 311 310 311 311 312 313 313 313 314 315 315 316 316 316 316 316 316 315 315 316 318 321 324 325 326 327
313 312 313 313 311 310 307 306 309 312 313 313 312 311 310 308 308 308 308 308 306 307 310 312 312 312 311 309 308 309 310 309 309 309 309 309 309 309 311 311 311 313 314 317 318 313 310 311 309 307 306 305 306 307 307 308 308 308 308 309 309 309 310 310 311 311 312 312 312 312 313 314 314 315 315 315 315 316 316 316 318 319 322 323 325
316 314 314 314 313 312 310 309 308 309 311 313 313 312 312 312 310 310 310 309 307 305 306 309 310 311 311 308 308 309 311 311 310 309 309 309 310 309 309 310 310 311 311 312 315 313 310 309 308 307 307 306 306 307 307 306 306 306 306 307 308 308 308 309 309 309 309 309 310 310 310 311 311 312 312 313 314 315 316 316 317 318 319 321 322
318 317 316 315 315 314 313 312 311 309 309 311 312 311 313 314 313 311 311 309 309 308 307 307 309 310 310 308 307 307 310 312 311 309 309 310 310 309 310 310 309 310 310 310 312 311 309 308 308 308 308 307 306 306 305 304 303 304 305 306 307 307 308 308 308 308 309 308 309 309 309 310 310 310 310 310 311 312 312 313 315 316 317 318 320
319 318 317 317 317 316 315 314 314 313 311 311 312 311 311 314 314 313 312 311 310 311 309 307 308 310 310 310 310 308 307 309 310 309 308 309 309 309 310 309 308 308 308 308 308 308 307 307 308 307 307 306 305 304 303 303 303 304 305 306 306 307 307 307 308 308 308 308 308 309 309 309 309 309 309 309 310 310 310 311 312 314 315 316 317
319 319 319 318 318 318 318 317 316 316 315 313 313 312 311 313 314 313 313 312 311 312 311 309 308 309 310 310 311 310 307 306 307 308 308 308 309 309 309 308 307 307 307 307 307 307 307 307 307 307 306 305 304 302 302 303 304 305 306 306 306 306 307 307 307 307 308 308 308 308 308 308 309 309 309 310 311 311 310 310 311 313 314 315 316
320 319 320 319 319 319 318 318 317 317 317 316 315 315 313 312 313 313 314 312 311 312 312 311 309 308 309 310 310 310 310 307 306 307 308 308 308 309 308 307 307 307 306 306 306 306 306 306 306 305 305 304 303 302 302 303 304 305 305 305 305 306 306 307 307 307 308 308 308 308 308 308 309 309 309 310 310 310 310 310 310 311 312 313 315
320 319 320 319 319 319 318 318 318 318 318 318 317 317 316 315 314 313 313 313 312 312 312 312 311 310 309 309 309 309 309 308 306 305 307 308 309 309 308 308 307 306 306 305 305 304 304 304 304 304 303 302 301 301 302 303 303 304 304 304 305 305 306 306 306 306 307 307 307 307 308 308 308 308 308 308 308 308 308 308 308 309 309 311 312
320 320 320 320 320 320 319 319 319 319 319 318 318 318 318 317 316 314 314 313 313 313 313 312 312 312 311 309 309 309 309 309 308 306 306 308 309 309 308 307 305 303 303 302 302 303 302 302 302 301 300 299 299 299 300 300 300 301 302 302 303 303 304 305 305 305 305 306 306 307 307 307 307 307 307 307 307 307 308 308 308 309 309 309 310
321 320 321 320 320 320 320 320 320 319 319 319 319 319 319 318 317 316 315 314 314 314 314 313 312 312 313 311 310 310 309 309 309 307 306 307 308 308 307 304 300 298 298 298 299 299 299 299 299 298 297 297 296 296 296 297 297 299 299 299 300 300 301 302 302 303 303 304 305 306 306 306 306 306 306 306 307 307 308 308 309 309 309 309 309
322 322 321 321 321 321 321 320 320 320 320 319 319 319 319 319 318 317 316 315 315 314 314 313 312 312 313 312 311 311 310 309 309 308 307 307 307 307 305 300 297 296 295 295 295 296 296 297 296 296 295 296 296 296 297 297 297 298 298 298 298 298 298 299 299 300 301 301 303 304 305 306 306 306 306 306 306 306 307 308 308 308 308 308 308
321 321 321 320 321 321 321 321 320 319 319 319 320 319 319 319 318 318 317 316 315 315 315 314 313 312 312 312 311 311 311 309 308 308 307 306 306 305 303 300 298 296 295 294 295 295 296 296 296 296 297 297 297 297 297 298 298 298 298 299 299 299 299 298 298 298 299 300 301 302 303 304 305 305 306 306 306 306 306 306 306 306 306 305 306
320 320 320 320 320 320 320 320 319 318 317 318 320 319 319 319 318 318 317 316 316 315 315 315 313 313 312 312 311 311 310 309 308 308 307 305 305 304 303 301 299 297 296 296 296 297 297 297 297 297 298 298 298 298 298 298 299 299 299 299 299 299 299 298 298 298 298 299 299 299 300 300 301 301 302 303 304 304 305 305 305 305 304 304 304
320 320 320 320 321 321 320 320 319 319 318 319 320 320 319 319 319 318 318 317 316 315 315 315 314 313 312 312 311 311 310 309 308 307 306 305 304 304 303 301 299 298 298 298 298 298 298 298 298 298 298 297 298 298 298 298 299 299 299 299 299 299 299 298 298 298 298 298 299 299 298 298 298 298 298 299 300 300 300 301 301 301 302 302 303
319 320 320 320 321 321 321 321 321 321 320 320 321 320 320 320 319 319 318 318 317 316 315 315 314 313 312 311 311 310 310 309 308 307 306 305 304 303 303 302 300 299 299 299 299 298 298 298 297 297 297 297 297 297 298 298 298 298 298 298 298 298 298 298 298 298 298 298 299 298 298 298 297 297 297 297 297 297 297 298 298 299 299 300 300
316 317 318 318 319 320 321 321 321 321 321 321 321 321 321 320 320 319 319 319 318 317 316 315 314 313 312 311 311 310 309 309 308 307 305 304 304 304 303 302 300 300 300 300 299 298 298 298 297 297 297 297 297 297 298 298 298 298 298 298 298 298 298 297 297 298 298 298 298 298 298 297 297 296 296 296 296 296 296 297 298 299 299 300 300
311 312 313 314 314 315 317 319 320 320 320 320 321 320 320 320 320 320 320 319 319 318 317 315 314 313 312 311 310 309 309 309 308 306 305 304 304 304 303 301 300 300 300 300 299 298 297 297 297 296 296 296 297 297 297 297 297 297 297 297 297 297 297 297 297 297 298 298 298 297 297 297 296 296 296 296 296 296 296 297 298 298 299 300 301
309 310 310 311 311 311 312 314 316 316 317 317 317 318 319 320 320 320 320 319 319 318 317 316 314 313 312 311 310 309 308 307 306 305 305 304 304 303 302 301 301 301 301 300 299 298 297 297 297 296 296 297 297 297 297 296 296 296 296 295 295 295 295 295 296 296 297 297 297 296 295 296 296 296 296 296 296 296 296 297 297 298 299 299 300
309 309 310 310 310 310 311 312 312 314 315 315 315 315 317 319 320 320 320 319 319 318 317 316 314 313 311 310 309 308 307 307 306 305 304 303 303 302 301 301 301 300 300 299 298 297 297 297 297 297 297 297 296 296 296 295 295 295 294 294 293 293 293 293 294 294 295 295 295 295 295 295 295 295 295 296 296 296 296 297 298 298 299 299 300
307 307 308 308 309 309 310 311 311 312 313 313 314 315 316 318 319 319 319 318 317 316 315 314 312 311 310 309 308 308 307 306 304 304 303 302 302 301 301 300 300 299 299 298 297 297 297 297 297 296 296 296 296 295 295 295 294 294 293 292 292 292 292 292 292 293 293 294 294 295 295 295 295 295 295 295 296 296 296 297 297 298 298 299 300
307 306 307 307 307 307 308 309 310 311 311 311 313 314 316 317 318 318 318 316 314 313 312 311 311 310 309 307 307 306 305 304 303 302 302 301 301 301 300 299 299 298 298 297 297 296 296 296 296 296 295 295 294 294 294 293 293 292 291 291 291 291 291 291 291 292 292 292 293 294 294 294 295 295 295 295 295 295 296 296 297 297 298 298 298
306 306 306 306 306 307 307 308 309 310 310 311 312 314 317 318 317 317 315 314 311 310 309 308 308 307 305 304 304 303 303 302 302 302 302 302 301 301 300 299 298 297 297 296 296 295 295 294 294 294 293 292 292 292 292 292 291 291 291 290 290 290 290 290 291 291 292 292 293 293 294 294 295 295 295 295 295 295 295 296 297 297 297 297 297
306 306 306 306 307 307 308 308 309 310 310 311 313 315 317 317 316 315 314 312 309 308 306 305 304 304 303 302 302 303 303 302 302 302 301 301 300 299 298 297 296 296 295 295 294 293 293 293 292 292 292 292 292 291 291 291 291 291 291 291 291 291 290 290 291 291 291 292 293 293 294 294 294 294 295 295 295 295 295 296 296 295 296 296 296
Wind_Speed
7 7 8 10 11 11 10 10 11 12 12 12 11 10 8 7 6 5 5 5 7 7 6 5 6 5 5 5 5 5 7 9 7 9 11 9 9 8 7 6 5 6 6 8 10 10 10 11 11 10 10 9 9 9 9 8 7 7 6 3 3 3 4 4 4 4 4 4 5 6 6 7 8 8 9 9 10 11 12 11 11 11 12 13 12
7 8 10 12 13 12 12 12 14 14 13 12 11 9 7 7 7 6 5 6 6 7 6 6 7 7 7 7 6 4 6 10 9 10 11 9 9 8 8 7 6 6 5 8 10 10 9 9 10 11 11 10 10 9 9 9 7 7 7 5 3 3 4 4 4 4 4 4 4 5 5 5 6 6 7 8 9 10 10 10 10 11 12 13 12
8 8 10 13 14 14 14 16 16 14 13 11 11 10 8 8 7 7 8 8 8 8 7 8 8 9 9 9 9 5 5 11 11 10 11 10 9 9 9 9 7 6 6 7 10 10 9 8 8 9 11 11 11 10 10 10 9 8 7 7 5 3 4 4 4 5 4 4 3 4 4 4 5 5 6 7 8 8 9 9 10 11 12 13 12
8 8 9 13 16 17 17 16 15 13 12 12 12 10 10 10 9 8 9 10 9 8 6 7 9 10 10 9 10 8 6 12 15 12 12 11 10 10 10 9 9 8 6 7 9 9 8 8 8 8 9 11 12 11 11 10 9 10 9 9 8 5 4 5 5 5 5 4 3 3 3 3 4 4 5 6 7 7 8 9 9 10 10 11 12
9 9 9 12 16 18 17 14 13 13 12 11 11 9 9 11 10 9 10 10 9 7 6 7 9 11 11 10 11 8 7 13 17 15 14 13 11 11 11 10 10 9 8 7 8 9 8 8 9 8 6 8 9 10 11 10 10 12 10 9 10 8 5 6 5 4 5 5 4 3 3 3 3 3 4 5 5 6 7 8 8 8 9 10 11
11 10 10 12 15 15 14 13 13 12 12 11 10 9 9 9 9 8 9 10 9 8 7 7 9 10 10 9 8 4 5 12 15 15 16 15 14 14 13 11 11 11 10 9 8 9 8 7 9 9 7 7 7 7 8 8 10 12 12 9 10 10 8 7 6 5 5 5 5 4 3 3 3 2 3 3 4 5 6 6 7 7 8 8 9
12 12 12 12 13 13 12 13 13 12 11 11 10 9 8 7 7 7 7 8 9 9 8 8 8 8 7 8 7 5 6 8 11 12 13 15 16 16 15 14 13 12 11 10 9 9 9 8 8 9 9 8 8 8 6 6 8 9 12 11 9 10 10 9 7 6 6 6 5 5 4 3 3 3 3 3 3 4 5 5 6 6 6 7 8
10 12 12 12 12 12 11 11 11 10 10 11 11 11 9 8 7 6 5 7 8 9 8 8 8 8 7 8 9 7 6 8 9 9 10 13 16 18 17 16 15 14 12 11 11 10 10 9 9 9 9 8 9 9 8 7 8 7 9 10 9 9 10 10 9 7 6 6 5 5 5 5 4 3 3 3 3 3 3 4 4 4 5 5 7
7 9 10 9 10 10 10 9 8 8 10 11 11 11 10 11 9 6 7 8 10 10 9 8 8 7 7 7 8 8 8 9 9 9 8 11 15 18 19 16 15 16 15 14 12 12 11 10 10 9 9 8 8 9 9 9 10 8 7 8 10 9 9 10 10 8 7 6 5 4 5 6 5 4 3 3 2 2 2 3 3 3 4 5 6
5 7 7 8 8 7 7 7 6 7 9 10 10 10 12 14 12 10 10 9 11 11 9 9 8 8 7 7 7 7 8 9 10 10 9 9 9 12 15 15 15 15 16 16 15 14 13 12 11 11 10 9 9 8 9 10 10 9 7 7 9 9 9 9 11 10 9 8 7 4 4 5 6 5 4 3 2 2 2 2 2 2 3 3 5
4 3 4 6 6 4 4 5 5 5 8 9 9 10 13 14 13 13 12 9 10 10 9 9 8 7 6 5 5 6 6 7 9 9 9 9 9 7 7 11 14 16 16 16 17 16 15 14 13 13 12 11 11 10 9 10 10 10 9 7 8 10 9 8 10 12 11 10 9 6 4 2 4 5 4 3 3 2 1 2 2 2 2 3 4
6 5 5 4 3 3 3 3 2 4 8 9 10 12 13 12 10 10 10 9 9 9 9 8 6 4 3 2 3 4 4 3 5 8 9 8 8 7 6 5 8 13 16 17 17 17 16 16 15 15 14 13 12 12 12 12 11 11 11 10 9 10 10 7 8 11 12 11 10 8 6 3 3 4 4 4 3 2 2 2 2 3 3 3 3
5 5 5 7 7 6 5 5 3 4 7 8 10 13 12 10 8 6 7 7 8 9 9 9 7 3 2 3 3 3 5 5 3 4 7 8 6 5 5 4 4 8 13 16 17 16 16 16 16 16 16 15 14 13 13 13 14 13 13 12 11 11 12 10 8 10 11 10 10 11 9 7 5 4 4 4 4 3 2 2 2 3 3 3 4
6 5 6 6 7 7 8 8 6 7 8 8 9 12 12 10 8 7 7 7 7 8 8 7 5 4 2 1 1 2 3 4 4 4 3 5 4 3 3 4 4 5 8 11 12 13 14 14 15 16 17 17 16 15 14 14 15 15 15 14 13 12 13 12 11 10 10 9 10 11 10 8 7 7 6 5 4 4 3 3 3 3 4 4 4
7 7 8 7 6 8 10 10 9 8 7 7 6 8 10 10 9 7 7 6 5 7 8 5 3 4 2 1 1 1 2 3 3 5 4 3 3 1 3 6 5 4 6 7 9 10 11 11 12 12 14 16 17 16 16 16 16 16 16 16 15 14 13 14 14 12 11 10 10 11 10 8 8 8 8 8 7 6 5 4 4 4 5 5 5
7 8 9 8 7 9 11 11 11 9 8 7 6 5 6 8 8 8 7 6 5 6 8 6 5 6 3 1 1 2 1 3 2 3 3 3 3 3 4 4 3 2 3 4 5 7 8 10 10 11 11 12 14 15 17 18 18 17 17 17 17 17 15 15 15 15 14 12 11 11 11 9 8 8 8 9 9 9 8 6 6 6 6 6 6
7 9 9 8 8 9 9 9 10 11 11 10 9 8 6 5 7 8 7 6 6 6 7 7 7 6 2 2 2 1 2 2 0 1 1 1 1 2 3 3 3 3 4 4 5 6 7 10 10 11 11 11 12 13 15 17 18 17 17 18 19 20 18 17 16 16 16 16 14 13 13 11 9 9 8 8 9 10 10 9 8 8 8 7 7
7 9 8 8 9 9 8 9 11 13 13 13 13 12 10 8 6 6 6 6 7 7 6 7 9 7 3 3 2 1 2 1 1 0 1 1 1 2 1 2 2 2 3 4 5 6 7 8 10 10 11 11 12 14 16 17 17 16 16 17 19 21 21 20 18 17 17 17 16 16 15 14 12 11 10 9 9 9 10 11 11 10 10 9 9
7 10 10 10 11 10 10 11 13 13 12 13 15 15 14 12 9 6 4 4 7 8 7 6 7 7 5 4 3 2 1 1 2 1 0 1 2 2 2 2 3 4 5 6 6 7 6 5 6 8 9 10 11 13 16 16 15 15 15 15 17 19 21 22 20 20 19 18 18 17 17 16 15 14 13 12 11 10 10 10 12 12 12 11 11
7 10 12 14 14 13 13 14 14 13 12 13 14 14 14 13 11 9 6 4 4 6 7 4 3 5 7 7 4 1 1 2 2 2 2 1 1 2 2 4 5 6 8 9 9 9 9 7 6 7 8 8 8 9 11 12 14 15 15 14 13 15 18 20 21 21 21 21 19 18 17 17 17 17 16 15 15 14 13 12 12 13 13 13 13
7 9 12 14 14 14 13 13 13 13 13 13 13 13 12 12 11 10 9 8 6 6 7 5 5 5 5 6 3 1 2 4 3 3 3 2 1 2 5 5 4 4 5 8 10 11 11 11 10 10 10 9 8 7 7 8 11 13 13 12 11 11 13 15 18 20 22 23 22 21 20 19 18 17 17 18 18 17 16 15 15 14 14 14 14
9 10 11 12 12 11 11 12 11 11 11 12 12 12 12 12 12 11 11 12 12 11 10 10 9 8 6 6 4 2 3 5 5 4 4 4 3 1 4 5 3 5 9 9 7 8 11 12 12 12 12 12 11 10 9 10 11 11 10 10 10 10 11 13 14 16 18 19 21 22 23 23 22 19 18 19 20 19 18 18 18 18 16 15 15
9 10 11 11 11 10 11 13 13 11 11 11 10 10 10 11 12 12 12 12 13 13 13 13 13 14 12 10 9 7 6 7 7 7 6 5 4 1 4 4 2 5 12 16 17 12 5 6 8 10 11 14 15 14 13 13 11 10 10 10 10 11 12 13 13 14 15 16 18 20 22 23 24 23 23 21 19 20 20 20 21 20 19 18 17
10 10 12 11 10 11 12 12 13 12 11 10 10 9 9 9 10 11 11 11 11 11 12 12 13 14 15 14 13 11 10 9 8 8 8 6 5 3 3 4 2 5 10 16 19 21 20 17 14 11 9 7 11 14 15 14 11 8 8 8 7 8 8 9 10 10 11 13 15 16 19 20 21 23 25 23 21 22 22 21 21 21 21 20 20
12 12 12 12 12 12 12 12 12 11 10 10 9 9 8 9 9 10 10 10 10 10 11 11 11 11 12 11 11 10 10 9 6 7 7 6 6 4 3 3 2 4 9 12 14 17 20 21 21 20 19 16 9 4 5 7 7 5 4 4 5 4 4 5 5 6 6 8 9 10 13 15 17 19 21 22 23 24 23 22 22 22 23 23 23
15 14 13 13 12 12 12 12 12 11 9 9 9 8 8 9 10 10 10 10 10 11 11 11 11 11 11 10 10 10 9 7 6 6 6 5 7 6 2 2 3 4 7 9 11 13 13 15 17 18 19 20 18 16 14 13 12 11 9 9 9 8 7 5 4 4 4 5 5 6 7 9 11 14 17 18 21 23 24 23 24 25 26 25 25
17 16 15 14 13 12 12 13 12 11 9 9 8 8 9 10 11 11 10 9 10 11 10 10 11 10 9 9 9 9 8 6 6 7 8 8 9 8 5 4 2 4 6 7 9 12 13 12 12 15 17 17 16 15 14 13 12 11 10 10 10 9 9 8 6 5 4 5 5 6 6 7 8 10 12 14 16 18 20 22 25 26 27 27 26
18 17 16 14 13 13 13 14 13 11 10 9 8 8 8 9 10 10 11 10 10 12 11 10 10 9 8 7 7 8 8 7 6 7 8 9 8 8 9 8 4 2 3 5 5 7 13 13 10 12 16 15 13 11 9 9 10 10 9 9 8 8 9 9 9 7 6 6 7 7 8 8 9 10 11 13 14 15 16 18 20 23 26 27 28
17 17 16 14 13 13 13 14 14 12 11 9 7 7 8 8 9 9 10 9 10 12 11 10 10 9 8 7 7 8 9 9 9 8 7 7 7 7 8 9 7 4 2 3 3 2 8 13 10 11 16 16 14 11 9 8 9 9 8 8 8 8 8 9 9 9 8 8 9 9 10 11 11 12 13 14 15 16 16 16 17 19 21 24 26
17 16 16 14 13 12 12 13 14 13 11 8 6 6 7 7 7 7 7 7 8 10 9 8 8 7 7 7 7 8 9 9 10 9 7 7 7 6 6 7 7 5 3 2 2 2 4 10 10 13 16 16 13 12 10 9 9 10 10 9 9 9 10 10 10 10 10 10 11 12 12 12 13 14 15 16 17 17 18 18 18 18 18 20 23
18 17 17 16 14 13 12 12 12 12 11 9 7 6 5 5 5 5 5 4 6 8 7 7 7 5 5 6 6 6 7 7 7 7 6 7 6 6 5 5 6 6 4 2 0 2 5 8 10 13 14 13 12 12 12 11 12 12 11 10 10 10 10 10 10 11 11 11 11 11 12 13 13 14 14 15 16 17 19 19 20 20 20 20 21
20 18 17 16 15 14 13 12 12 12 11 10 10 8 7 6 5 5 5 5 5 5 4 5 7 6 4 5 4 4 4 4 4 4 3 4 5 5 4 5 6 6 7 4 1 6 9 10 11 13 13 13 14 15 16 16 14 13 12 11 12 11 11 11 11 11 11 11 11 11 13 13 13 13 13 14 14 15 16 17 18 20 20 21 21
21 20 18 17 15 14 14 13 12 12 11 11 11 10 9 8 7 7 6 6 5 4 3 5 7 6 5 3 2 2 3 3 3 2 3 3 4 4 3 4 5 6 7 6 4 9 12 12 13 15 15 16 18 18 19 19 17 15 14 14 13 13 14 14 13 13 13 13 13 13 13 14 14 14 14 14 14 14 14 15 16 17 18 20 21
23 21 19 17 16 15 15 14 13 12 11 11 11 11 11 11 10 10 9 9 9 8 7 6 7 6 6 4 2 1 2 1 2 2 1 2 3 3 3 4 5 6 7 8 7 7 12 16 16 16 17 19 20 20 20 20 19 18 17 17 16 15 15 15 15 15 14 14 14 13 13 13 13 13 13 13 13 14 14 15 15 16 16 17 19
23 22 19 18 17 16 16 15 14 13 12 12 12 12 12 12 12 12 12 11 11 11 11 10 9 7 7 6 5 4 1 1 1 2 1 1 2 3 3 3 4 6 7 8 9 8 10 16 17 18 19 20 20 20 19 19 18 18 18 18 17 16 15 15 15 14 14 14 14 13 13 14 14 14 14 14 15 15 16 16 16 16 15 15 16
23 22 20 18 17 17 16 15 15 14 13 13 13 13 13 13 13 13 13 13 13 13 13 12 11 10 9 9 8 7 4 2 2 3 2 1 2 3 4 5 6 7 8 8 9 9 10 14 17 18 19 20 19 19 19 19 18 18 18 18 17 17 16 15 15 15 15 15 14 14 15 15 15 16 16 16 17 17 17 17 16 16 16 16 15
21 21 20 19 18 17 17 16 16 16 15 15 15 15 15 16 15 14 14 14 14 14 14 14 14 13 11 10 9 9 7 6 5 4 4 4 4 5 6 7 8 9 10 9 10 11 12 14 17 19 20 20 20 19 19 21 22 21 21 20 18 18 18 17 16 17 18 18 18 17 18 18 18 18 18 18 18 17 16 16 16 16 16 16 15
16 16 17 18 18 18 18 18 18 18 17 17 17 17 18 18 18 17 16 16 16 16 16 16 16 15 14 11 11 11 10 8 7 6 6 6 6 6 6 7 9 10 11 11 11 12 13 14 16 19 21 21 21 22 21 21 22 21 23 24 21 20 22 22 20 20 20 21 20 19 19 20 20 20 20 19 17 16 16 15 15 15 15 15 14
13 13 13 14 15 15 16 17 18 17 18 19 20 21 22 22 21 21 20 19 18 18 18 18 17 17 16 13 13 14 12 10 9 8 8 7 6 6 5 6 9 10 10 10 10 10 11 12 14 17 19 20 21 22 22 21 20 20 23 27 27 26 27 27 26 25 24 22 21 19 18 18 18 18 18 17 16 16 16 16 16 17 17 17 16
14 13 13 13 14 14 14 15 14 14 15 17 19 21 23 24 24 24 23 22 21 21 21 20 19 18 17 16 15 16 14 12 11 10 9 8 7 6 6 7 9 9 9 9 9 8 9 11 12 14 17 20 21 22 23 23 23 23 25 26 27 28 30 30 30 27 24 23 23 22 21 20 20 20 19 19 18 17 18 19 20 21 22 22 21
14 14 14 14 15 15 16 16 16 15 15 17 17 17 18 22 25 25 25 24 24 24 24 24 22 20 19 18 17 17 16 14 12 11 10 9 7 6 6 8 9 9 8 8 7 8 10 12 13 14 16 19 20 22 23 23 23 24 26 26 25 28 32 33 32 27 22 23 25 25 24 24 25 25 25 24 24 24 24 25 25 26 27 27 26
11 10 10 11 12 13 15 17 18 17 16 16 16 16 16 18 21 23 24 25 26 26 27 26 25 23 22 21 19 19 18 16 13 12 11 9 7 6 7 9 10 9 8 7 7 8 10 12 13 14 16 18 19 20 21 22 22 23 24 24 25 29 31 30 31 28 22 22 26 29 29 29 29 29 29 28 28 28 29 29 29 30 31 30 29
7 7 8 9 10 11 13 15 15 16 15 15 15 16 17 19 20 21 22 24 26 27 28 28 27 25 24 23 22 21 20 17 15 13 12 10 7 7 8 9 10 10 9 9 8 9 10 11 14 15 15 17 20 20 20 21 22 22 22 22 24 27 26 22 23 26 27 26 28 31 33 32 30 29 30 29 28 28 27 26 26 26 27 28 28
5 6 7 7 8 10 12 14 14 14 14 13 14 15 16 18 20 20 20 21 23 25 27 29 29 28 27 26 25 23 21 18 16 14 13 11 9 8 8 9 10 10 10 10 10 10 10 11 14 16 16 17 20 20 19 20 20 21 23 23 23 22 22 20 20 25 29 29 29 31 35 33 29 27 28 28 28 28 26 23 21 20 21 22 22
2 3 4 4 5 6 8 9 11 11 11 11 11 12 13 14 16 18 19 20 22 24 25 28 29 29 29 28 26 23 21 18 16 14 13 11 10 9 9 9 10 10 11 12 12 11 11 12 14 17 17 17 19 20 19 18 19 21 22 23 22 21 21 22 23 27 31 31 30 30 33 33 29 26 26 28 29 28 25 23 21 20 20 20 21
3 3 4 5 6 7 8 8 9 10 10 11 11 12 12 12 12 14 16 18 20 22 23 26 29 30 30 29 26 24 21 18 16 13 12 11 11 10 9 9 10 11 12 12 12 11 12 13 14 16 17 17 18 19 19 18 18 19 20 20 21 22 23 25 27 30 31 31 28 25 25 27 27 25 26 28 29 26 24 22 19 17 17 18 21
5 6 6 7 8 9 9 10 10 10 11 12 13 13 12 11 11 11 13 15 17 19 21 24 27 29 28 27 24 21 18 16 14 12 11 11 10 10 9 9 10 10 10 11 11 11 12 13 14 15 16 18 18 19 20 20 19 19 20 22 23 25 28 29 30 29 29 27 24 20 21 23 24 26 28 27 25 24 22 18 15 15 17 18 20
7 8 8 9 10 10 10 10 12 12 12 13 14 14 13 12 10 11 11 12 13 16 18 21 24 25 24 22 19 15 14 13 12 11 10 10 10 10 10 10 10 10 10 11 12 12 12 13 13 14 16 18 19 21 22 23 24 25 25 26 27 27 27 27 27 27 26 23 20 17 21 22 22 24 28 26 23 23 21 17 15 15 17 18 19
8 9 10 10 11 12 11 12 13 14 14 14 14 15 14 12 10 10 10 10 10 12 15 17 19 19 17 16 14 13 13 13 11 10 10 10 10 10 10 10 10 11 11 12 12 12 13 15 16 18 20 21 22 24 25 25 26 25 24 25 24 23 22 19 20 22 24 23 20 19 22 23 20 21 24 24 23 22 21 17 13 13 16 19 20
9 10 11 12 13 13 13 13 14 14 15 15 14 15 14 12 9 8 9 10 11 13 14 15 15 15 14 13 13 13 12 11 9 10 11 12 11 11 10 9 9 10 11 12 14 15 16 18 18 19 19 19 19 20 18 17 16 15 16 18 18 19 19 16 17 21 23 21 17 15 18 21 18 18 21 22 22 21 17 13 12 15 21 23 23
10 11 12 13 13 14 14 15 14 14 15 14 14 13 13 11 8 7 9 12 14 15 16 16 15 14 14 13 12 11 10 9 9 10 10 10 9 8 7 8 9 11 12 13 14 15 15 15 15 14 14 13 14 14 12 11 11 11 12 14 15 17 19 19 19 18 15 12 12 14 18 21 20 20 20 17 14 12 9 11 17 22 24 25 24
Wind_Direction
199 199 198 191 189 192 193 195 199 202 202 203 201 197 198 207 221 222 202 190 190 196 208 224 226 224 222 226 245 257 223 193 174 186 189 177 167 168 174 182 192 198 201 187 186 195 195 196 197 197 197 188 186 178 172 181 177 178 195 202 170 151 141 139 138 130 125 120 112 109 109 110 110 108 107 107 106 106 108 110 112 108 107 104 100
206 206 202 195 191 191 195 202 207 206 202 205 207 204 205 213 226 231 222 215 212 216 229 237 224 218 221 226 236 247 216 199 186 188 192 183 176 174 177 186 187 183 184 180 187 197 199 207 206 202 202 192 191 190 184 187 179 175 199 217 221 189 169 155 145 141 134 125 115 113 113 112 112 111 110 109 109 110 110 113 113 110 114 113 106
206 207 206 198 193 196 203 209 212 209 207 210 212 216 221 226 232 237 236 232 232 235 246 244 220 214 225 223 220 228 226 208 197 196 197 191 187 185 184 190 189 178 173 173 185 196 201 213 216 209 205 198 197 198 194 197 185 173 198 216 224 219 191 175 158 152 147 134 127 121 117 115 113 113 113 111 112 113 113 112 108 106 112 114 109
199 202 205 199 199 206 210 211 211 209 212 215 215 223 228 228 232 237 236 233 237 245 259 256 227 220 226 216 211 226 235 208 199 200 202 200 200 198 192 191 192 186 178 173 181 194 203 209 215 217 209 202 205 202 198 208 194 176 195 215 216 218 196 185 175 163 157 147 142 133 125 123 117 116 114 113 115 116 116 115 111 110 112 116 115
199 200 201 202 207 214 216 214 211 208 213 220 220 225 225 220 222 228 232 233 238 247 260 251 224 218 222 217 219 236 234 208 202 200 202 205 207 208 202 197 195 192 190 183 181 190 199 201 206 217 217 207 208 203 201 213 203 184 191 212 215 214 203 196 192 183 172 157 151 147 138 132 127 127 119 118 120 120 121 119 119 116 114 117 119
203 205 206 208 214 218 219 218 215 213 214 219 222 224 218 209 210 221 230 232 234 238 238 218 201 205 212 211 212 212 201 205 208 207 208 209 209 211 208 203 200 197 195 190 189 192 196 197 201 208 212 214 212 205 204 209 207 199 196 206 214 209 208 213 208 200 191 174 163 159 154 149 144 143 134 130 128 126 127 123 123 122 122 122 125
203 212 218 216 217 218 221 222 224 224 217 216 220 219 211 198 196 208 226 232 229 225 214 188 174 183 189 185 175 152 144 170 193 206 215 216 215 215 211 208 205 203 202 196 195 197 199 200 201 205 206 213 214 212 219 212 210 213 204 205 215 209 207 215 220 210 198 190 179 172 174 171 165 163 158 150 140 133 130 130 130 129 132 131 133
206 216 225 223 218 215 218 221 225 225 215 210 208 208 207 197 190 197 216 216 204 194 186 172 162 157 158 167 174 175 142 129 152 179 202 215 220 219 215 213 208 207 210 205 202 203 203 204 204 209 212 215 213 211 222 221 216 220 208 208 218 217 210 212 222 221 206 199 195 193 190 184 180 178 178 175 159 151 139 137 139 136 140 140 139
218 219 225 227 220 213 211 211 218 224 219 213 207 206 204 196 191 197 210 202 186 180 173 166 161 149 140 145 160 176 160 128 124 138 164 193 212 220 220 222 218 215 216 214 211 210 208 208 208 212 218 219 215 207 210 218 224 226 211 207 217 225 220 214 219 223 222 222 215 212 207 197 194 190 187 190 179 169 160 154 152 145 146 147 147
212 223 227 225 218 212 207 205 218 228 222 218 212 206 202 199 196 198 206 204 194 190 177 162 154 147 137 133 141 155 151 132 121 121 126 143 176 206 217 224 226 225 226 223 219 217 214 212 211 216 222 225 223 215 210 217 230 236 228 211 213 224 227 220 219 219 222 234 239 239 229 207 202 203 197 196 196 185 179 179 179 173 162 158 155
135 173 198 205 208 207 200 201 218 218 207 201 188 189 198 199 199 200 201 198 195 193 185 167 152 146 140 137 149 156 150 134 125 126 122 119 129 150 187 212 221 226 229 229 225 223 221 218 216 218 222 227 230 228 221 223 230 234 237 230 218 223 230 224 222 220 215 224 242 247 244 223 203 204 203 199 198 198 210 204 199 197 192 187 170
114 109 119 128 131 138 142 159 190 198 196 191 177 184 192 187 191 199 196 189 188 192 195 192 183 169 168 186 198 193 197 174 131 127 127 121 122 129 138 172 208 219 224 229 229 227 227 227 225 225 224 225 230 233 232 234 235 232 235 239 230 226 234 234 223 222 215 213 228 236 240 252 220 200 202 205 198 195 219 232 227 217 210 212 205
113 113 112 101 94 102 107 112 111 131 169 181 181 189 191 185 185 184 187 190 183 185 197 207 216 220 208 216 217 212 219 215 186 146 137 131 122 125 133 140 175 204 216 225 228 229 232 233 233 233 233 230 232 236 237 238 240 237 234 236 236 229 234 243 234 224 222 215 214 221 232 242 234 215 203 198 195 195 206 230 244 240 229 224 225
105 123 130 107 92 99 102 102 102 109 139 163 180 190 191 193 189 175 180 190 181 178 185 198 212 210 201 222 259 259 248 233 223 219 181 155 137 106 123 148 161 170 188 206 216 222 227 229 231 233 237 238 236 239 242 243 244 243 239 234 233 230 230 241 241 229 227 222 211 213 225 233 231 226 214 203 199 199 204 218 236 251 249 237 232
100 115 131 122 100 104 102 96 95 101 124 147 162 178 184 192 194 183 179 180 175 173 175 179 177 173 156 79 310 316 309 292 249 234 230 206 213 216 148 149 151 154 163 181 196 204 209 212 217 224 231 236 236 239 244 247 248 246 245 240 234 232 228 231 238 237 233 231 221 217 223 224 221 224 222 218 218 214 212 215 223 240 249 248 239
100 108 123 125 108 105 102 93 93 96 104 111 106 122 165 189 201 202 190 177 176 176 181 181 166 167 148 65 40 42 328 287 282 249 245 233 233 225 192 168 148 169 191 206 218 209 206 207 208 214 222 229 233 237 242 247 249 248 248 246 242 239 233 226 231 239 240 239 235 229 231 230 222 223 224 225 228 227 225 223 224 232 240 246 245
97 97 109 117 111 106 103 98 98 99 99 97 90 86 101 146 186 203 206 197 189 180 188 193 182 179 145 95 70 37 242 239 49 318 270 238 226 195 195 198 193 216 230 247 256 237 224 221 217 218 223 227 232 238 244 246 249 251 252 248 243 242 239 231 227 235 242 243 242 238 238 239 233 229 229 230 233 234 233 233 233 232 233 239 242
96 87 95 116 124 115 107 109 107 105 104 99 92 86 87 102 141 183 205 206 195 180 184 197 194 189 142 101 80 334 251 178 113 6 344 320 260 214 213 221 206 235 250 253 259 246 236 234 231 232 235 239 244 250 252 250 249 253 255 249 242 240 239 237 232 232 238 242 244 243 240 243 246 241 236 235 236 238 238 238 240 238 234 236 237
99 86 89 110 126 120 112 118 118 113 109 103 96 91 89 92 105 125 151 185 191 179 176 196 203 199 193 164 116 36 356 136 146 154 12 304 281 230 241 267 249 247 248 247 255 252 245 242 238 240 247 249 252 256 255 253 249 250 253 249 243 241 240 241 239 236 238 241 244 244 242 244 248 248 246 242 239 241 243 244 244 237 230 232 233
112 97 93 101 111 110 108 114 118 115 110 106 101 95 93 93 96 102 106 126 175 173 168 180 189 189 209 203 171 69 24 73 83 113 127 155 320 319 313 300 271 261 260 254 252 248 242 244 249 251 253 248 245 252 252 250 248 247 251 250 245 244 243 243 244 243 243 245 246 247 246 245 244 248 251 251 247 242 242 247 249 241 230 227 227
127 117 105 102 104 104 103 107 112 112 109 106 103 100 97 95 95 99 100 103 113 124 131 128 114 129 186 204 193 139 94 82 71 86 98 99 36 336 350 351 334 335 317 275 263 261 256 256 260 262 261 251 246 252 252 249 251 252 252 250 248 249 249 247 247 246 245 246 249 249 250 249 249 251 250 252 257 253 246 245 247 247 240 231 227
125 126 120 111 107 104 98 98 105 114 116 114 111 107 102 98 97 100 102 102 105 104 104 104 98 101 135 167 176 155 89 68 61 76 87 86 84 36 350 358 355 14 24 19 350 308 282 275 273 271 269 259 253 254 253 253 256 259 260 257 256 258 258 255 251 248 246 247 249 249 250 251 254 255 252 252 257 260 259 254 248 245 241 235 231
127 126 127 122 117 112 103 99 100 106 111 114 119 119 113 109 105 104 105 106 107 104 99 99 95 90 97 114 127 123 99 76 65 70 79 78 81 55 344 360 330 355 31 46 45 36 6 321 302 291 285 273 265 263 264 270 275 275 271 266 265 266 267 266 260 257 256 254 253 251 249 248 249 253 255 254 251 254 260 258 253 247 240 237 235
139 131 131 134 130 122 115 110 106 102 99 101 110 119 121 125 124 118 114 115 118 115 106 102 98 93 91 96 105 105 98 92 82 74 75 77 89 98 8 17 355 360 39 58 59 59 61 58 54 44 21 326 282 270 273 286 298 295 279 275 276 274 276 277 273 270 265 260 259 257 254 249 248 251 255 255 253 254 256 255 254 250 246 243 236
149 141 138 143 142 135 127 120 114 107 100 97 102 112 120 126 131 131 127 124 124 125 119 110 104 99 98 101 106 103 97 94 90 83 82 80 80 74 36 45 42 17 40 55 63 64 59 55 56 55 53 46 33 355 325 337 357 10 1 356 358 340 323 311 300 297 284 273 271 269 263 256 254 256 257 256 255 257 256 252 252 250 250 250 240
155 151 145 145 146 144 139 134 128 120 109 102 99 103 113 115 115 120 126 127 125 121 119 115 109 104 106 109 109 105 100 98 96 89 89 90 78 60 45 87 63 38 48 51 58 58 43 38 43 46 50 52 56 64 57 45 43 42 34 24 18 9 355 340 326 318 304 296 296 291 284 276 270 268 267 264 261 263 263 259 256 252 250 252 247
158 156 150 147 146 144 142 143 143 137 127 119 106 101 107 106 104 105 110 123 133 124 115 115 112 104 102 107 106 97 86 84 89 87 84 85 80 62 57 89 65 27 44 46 48 44 28 22 31 34 38 43 50 58 50 40 40 38 32 26 20 11 2 351 343 331 313 302 300 298 297 292 287 282 279 277 274 272 271 268 265 261 257 257 254
158 158 155 151 148 146 145 147 150 147 139 134 124 115 116 114 111 107 101 107 126 127 119 115 110 102 96 99 102 90 74 75 87 93 90 80 72 59 52 67 82 43 24 17 21 31 23 18 16 17 20 21 22 28 28 26 26 20 16 15 11 8 5 357 348 339 328 316 306 302 299 294 293 292 291 292 291 289 284 278 273 269 266 264 260
161 159 157 156 153 150 148 148 154 156 150 147 140 131 132 130 124 118 111 109 119 127 126 118 110 105 97 89 93 94 85 86 90 95 95 76 66 61 48 53 66 80 88 23 333 309 16 14 6 359 360 3 7 10 12 11 5 357 353 349 347 351 355 353 348 339 332 323 316 310 305 300 298 297 297 297 296 295 293 288 283 277 273 270 266
167 163 161 160 158 156 153 152 156 161 158 157 155 143 137 138 133 125 121 120 123 128 132 132 126 120 108 94 98 109 102 93 90 88 83 68 58 57 50 46 48 59 101 73 319 265 1 5 360 352 349 355 8 11 8 5 355 347 341 335 333 334 335 337 336 333 329 322 316 313 308 304 301 299 298 297 296 294 292 289 286 283 279 275 272
175 171 168 167 163 160 158 156 160 165 164 161 165 165 151 144 144 136 137 146 138 131 132 141 146 146 127 106 103 114 109 98 94 88 76 64 50 46 49 42 35 30 27 42 61 285 328 342 347 348 345 349 359 357 352 349 346 344 343 342 340 336 334 333 334 334 331 325 320 318 316 313 310 307 304 302 299 296 293 290 287 284 281 279 276
184 180 177 174 169 166 164 162 164 169 171 168 170 176 174 169 168 161 162 170 160 144 139 147 155 161 147 112 92 99 115 120 113 90 68 51 34 32 41 32 26 19 5 7 308 296 316 331 337 341 343 341 344 346 344 341 342 345 346 348 346 342 340 339 338 338 336 331 326 321 320 320 320 319 318 315 310 304 299 295 291 286 282 278 277
190 188 186 184 179 175 173 171 170 172 176 176 175 180 185 187 189 185 185 187 180 176 177 162 157 163 165 139 91 80 104 138 151 107 70 55 39 38 53 41 35 30 11 2 331 307 316 327 332 335 338 337 338 343 344 345 348 349 348 350 349 347 346 343 340 338 337 336 333 328 325 323 322 320 319 318 315 311 307 304 300 294 286 279 275
195 194 192 191 190 187 184 181 179 178 182 186 186 190 195 197 199 199 201 202 196 192 197 191 177 178 187 186 181 147 85 82 169 163 83 54 41 42 51 41 31 30 17 7 358 330 321 324 329 333 336 337 339 342 345 347 348 346 345 346 347 346 344 342 340 337 335 335 335 334 330 327 325 324 322 320 318 315 313 309 306 304 298 287 277
199 200 200 199 198 198 196 191 188 186 188 193 197 202 205 206 209 210 211 213 209 204 205 206 200 199 201 200 202 206 194 50 158 179 139 28 8 14 23 18 8 4 1 358 358 350 330 325 328 333 336 337 339 340 341 340 341 342 341 340 339 338 338 338 337 337 336 336 336 334 330 328 326 324 322 320 317 317 315 313 310 307 306 301 289
203 203 205 205 203 204 205 204 202 199 199 203 207 212 215 215 216 217 218 221 222 220 219 217 213 211 208 205 207 210 211 214 206 197 201 252 303 316 325 329 332 334 335 339 343 344 337 328 326 329 333 336 336 337 337 332 332 336 336 334 333 331 330 331 332 333 332 330 328 326 324 322 319 317 318 317 317 316 315 313 312 309 306 305 300
207 208 210 211 209 209 211 214 213 212 212 214 216 220 224 224 222 223 224 225 227 228 229 228 224 221 219 214 211 213 217 219 213 210 214 231 261 279 293 304 311 317 319 321 324 326 329 330 328 326 328 331 331 331 335 333 330 330 327 323 323 324 322 319 319 323 325 323 321 319 315 312 310 310 311 314 315 315 314 314 314 313 310 306 302
202 207 213 216 215 216 219 223 223 223 224 225 227 230 232 230 227 227 228 230 232 232 231 231 230 229 229 224 218 220 224 224 217 218 224 230 247 266 282 302 312 313 312 312 314 316 319 325 327 326 327 331 332 331 334 338 336 334 331 324 319 320 322 320 317 318 320 320 319 318 315 311 309 308 307 308 309 309 309 311 313 316 317 313 309
207 206 211 215 218 220 223 226 226 228 231 232 235 238 237 235 231 229 229 230 233 235 234 233 231 230 231 228 224 225 228 226 221 222 229 232 245 261 278 308 317 314 311 311 313 316 322 327 329 330 329 331 335 334 334 337 337 337 340 337 328 324 327 326 323 322 320 317 312 310 309 307 305 304 302 302 302 303 304 307 310 313 315 315 313
229 227 229 230 232 230 225 225 229 235 239 240 241 242 242 239 235 232 231 230 232 234 235 235 233 229 228 228 227 227 228 227 227 230 233 236 244 251 269 306 317 314 312 313 319 325 333 335 336 336 332 331 334 335 335 339 339 336 339 338 330 327 329 326 323 324 322 316 312 308 306 306 303 301 301 300 300 301 302 303 305 307 308 308 308
242 247 251 251 250 247 243 246 254 260 258 252 248 246 245 242 238 235 233 233 233 233 232 233 232 228 226 227 226 226 226 226 231 237 237 241 249 252 273 307 315 312 309 311 321 328 333 336 336 336 332 329 332 333 332 335 336 330 329 329 325 325 328 324 321 323 322 318 317 315 312 313 312 308 306 303 300 300 300 299 299 301 302 303 304
244 252 258 259 260 260 258 259 262 263 261 257 253 251 250 247 243 238 236 235 235 234 233 230 228 225 224 225 224 223 223 226 232 239 241 246 254 260 282 306 312 310 305 304 313 322 327 331 331 330 326 322 324 327 325 325 327 325 325 325 322 321 325 324 321 320 323 324 324 321 318 319 320 318 314 310 306 304 303 300 297 296 295 296 297
256 267 274 276 275 274 272 269 265 263 262 264 264 263 263 260 254 248 243 240 238 236 234 229 226 223 220 220 219 217 219 223 229 236 242 246 250 262 284 301 305 301 298 298 304 312 319 321 319 319 316 313 317 322 322 323 327 324 319 317 317 318 321 322 316 314 317 323 324 320 317 319 322 320 319 319 317 315 314 310 306 301 297 295 294
269 276 281 285 287 287 284 281 278 277 275 276 275 274 273 270 265 259 253 248 243 238 234 230 226 222 218 215 214 214 217 221 226 233 238 240 243 258 279 292 294 291 291 290 292 298 305 307 308 310 310 310 315 320 323 324 322 317 313 312 313 314 312 308 301 301 308 315 319 316 313 314 319 318 316 319 321 322 323 322 319 315 309 305 302
276 282 289 299 305 307 301 291 284 283 284 284 281 279 279 277 272 265 260 255 250 243 237 231 227 223 217 212 209 211 216 220 224 229 231 233 242 256 268 276 279 279 279 278 279 285 293 297 300 304 309 312 312 313 316 317 313 310 310 310 310 310 305 299 295 296 301 306 310 309 306 307 313 314 312 316 321 322 323 322 319 315 310 308 309
299 306 311 313 316 318 318 312 301 293 291 291 289 286 285 282 275 268 263 261 256 250 243 235 228 223 217 212 210 209 211 216 222 223 224 231 243 253 258 263 270 272 271 271 275 282 290 294 295 298 303 305 303 303 306 307 308 308 308 309 309 307 302 297 295 297 298 301 305 304 297 301 309 310 308 314 320 322 323 324 324 324 320 316 314
283 293 303 312 317 319 319 317 310 301 295 290 287 286 286 282 274 269 267 265 260 254 246 237 229 222 216 211 208 209 212 217 220 218 220 231 242 251 259 264 267 268 266 266 271 276 281 284 285 289 293 294 293 295 298 300 300 299 299 300 300 300 300 299 298 297 297 300 305 299 288 295 306 306 306 312 318 321 326 330 331 330 328 326 322
274 283 294 304 310 311 309 306 302 299 297 292 286 283 282 277 270 269 269 268 262 252 240 229 220 213 209 206 207 213 216 214 209 209 219 231 240 247 253 254 252 252 254 260 265 269 273 277 281 285 288 289 291 292 294 295 295 296 297 297 296 298 301 300 297 296 297 300 303 296 287 292 301 301 302 310 317 317 319 322 322 319 319 325 329
275 284 294 302 305 304 299 294 292 292 292 292 290 284 277 269 265 266 265 257 243 228 216 208 203 200 201 203 204 203 200 198 200 213 228 237 239 239 238 239 242 248 255 262 267 271 274 277 281 285 286 287 289 290 292 292 293 296 300 301 302 303 302 299 295 296 298 299 300 296 285 285 294 297 300 308 311 309 311 313 309 305 310 320 329
281 289 297 302 302 301 298 295 293 290 287 288 288 281 272 266 260 255 243 224 205 190 181 177 180 181 179 181 185 186 191 200 213 226 234 237 235 232 233 241 254 266 274 280 282 284 285 286 288 289 290 292 294 295 299 300 302 308 309 309 312 308 301 294 294 299 302 302 308 306 286 283 295 300 299 304 304 303 306 305 298 305 313 318 324
280 285 293 301 305 304 301 299 297 292 285 282 278 268 261 260 257 239 220 204 186 172 166 163 166 171 173 178 188 198 209 220 226 229 230 231 230 234 248 265 282 291 294 296 297 298 299 300 303 304 304 307 308 308 313 318 323 328 321 317 317 307 298 293 294 300 303 303 320 320 296 290 298 298 296 301 303 303 303 298 303 312 316 319 321